Hourly Data Report for October 03, 2017

All times are specified in Local Standard Time (LST). Add 1 hour to adjust for Daylight Saving Time where and when it is observed.

POWELL RIVER
BRITISH COLUMBIA

49°50'04.400" N
124°29'48.500" W
125.00 m
1046392
71720
VOP

Download Data

Hourly Data (October 2017)
Hourly Data Report for October 3, 2017
Temp Definition
°C
Dew Point Temp Definition
°C
Rel Hum Definition
%
Wind Dir Definition
10's deg

Wind Spd Definition
km/h
Visibility Definition
km
Stn Press Definition
kPa
Hmdx Definition


Wind Chill Definition


Weather Definition


TIME
00:00 6.5 3.8 83 LegendMM LegendMM   101.06     LegendNANA
01:00 7.2 4.5 83 LegendMM LegendMM   101.08     LegendNANA
02:00 4.4 3.1 91 LegendMM LegendMM   101.11     LegendNANA
03:00 4.3 3.4 93 LegendMM LegendMM   101.12     LegendNANA
04:00 3.7 2.6 92 LegendMM LegendMM   101.14     LegendNANA
05:00 3.2 2.4 94 LegendMM LegendMM   101.16     LegendNANA
06:00 3.1 2.3 94 LegendMM LegendMM   101.16     LegendNANA
07:00 5.4 4.1 92 LegendMM LegendMM   101.16     LegendNANA
08:00 8.2 6.6 90 LegendMM LegendMM   101.20     LegendNANA
09:00 12.3 6.1 66 LegendMM LegendMM   101.22     LegendNANA
10:00 14.1 5.9 58 LegendMM LegendMM   101.21     LegendNANA
11:00 13.6 4.7 55 LegendMM LegendMM   101.19     LegendNANA
12:00 13.9 6.4 61 LegendMM LegendMM   101.16     LegendNANA
13:00 14.3 4.9 53 LegendMM LegendMM   101.11     LegendNANA
14:00 16.0 5.1 48 LegendMM LegendMM   101.06     LegendNANA
15:00 16.3 4.5 45 LegendMM LegendMM   101.01     LegendNANA
16:00 16.0 3.6 44 LegendMM LegendMM   100.97     LegendNANA
17:00 14.0 6.0 59 LegendMM LegendMM   100.93     LegendNANA
18:00 10.8 6.1 73 LegendMM LegendMM   100.90     LegendNANA
19:00 8.4 5.3 81 LegendMM LegendMM   100.89     LegendNANA
20:00 7.0 4.8 86 LegendMM LegendMM   100.88     LegendNANA
21:00 6.5 4.5 87 LegendMM LegendMM   100.88     LegendNANA
22:00 5.4 4.0 90 LegendMM LegendMM   100.87     LegendNANA
23:00 6.6 5.9 95 LegendMM LegendMM   100.86     LegendNANA

Notes on Data Quality.

Legend

  • E = Estimated
  • M = Missing
  • NA = Not Available
  • ‡ = Partner data that is not subject to review by the National Climate Archives
Date modified: